Weather in Dunlap

United States     36°45′55″N   119°05′52″W
temp.,
°C
wind,
m/s
gust,
m/s
humid.,
%
clouds,
%
prec.,
mm/h
press.,
hPa
HPBL,
m
25 may, wed
wed2523:00+16ene43355 0.0 101340
02:00+16ene32335 0.0 101237
05:00+16ene43275 0.0 101337
08:00+24sw10195 0.0 1011373
11:00+28wsw33175 0.0 10111391
14:00+30wsw44145 0.0 10102219
17:00+29wsw331384 0.0 10092472
20:00+21ene212210 0.0 101011
26 may, thu
thu2623:00+18ene432537 0.0 101341
02:00+17ene432736 0.0 101242
05:00+16ene332611 0.0 101237
08:00+24sw11185 0.0 1011396
11:00+26wsw43195 0.0 10111207
14:00+28sw45204 0.0 10102062
17:00+27wsw442058 0.0 10102529
20:00+20se3332100 0.0 101159
27 may, fri
fri2723:00+16ese2345100 0.0 101536
02:00+14e32495 0.0 101526
05:00+13ene2247100 0.0 101416
08:00+19wsw2136100 0.0 1014387
11:00+22wsw3232100 0.0 10141001
14:00+22wsw3231100 0.0 10141328
17:00+23wsw3229100 0.0 10121731
20:00+15nne114491 0.0 101311
28 may, sat
sat2823:00+13ene32495 0.0 101435
02:00+13ene325160 0.0 101334
05:00+12ene325470 0.0 101327
08:00+14wsw2148100 0.0 1013253
11:00+13wsw1151100 0.0 1013313
14:00+13wnw1153100 0.0 1013322
17:00+16wsw324055 0.0 10101183
20:00+10wnw11595 0.0 101110
29 may, sun
sun2923:00+8ene32680 0.0 101226
02:00+7ene32720 0.0 101132
05:00+6ene32730 0.0 101130
08:00+11sw22530 0.0 1010585
11:00+14wsw44420 0.0 10091415
14:00+16wsw44263 0.0 10082140
17:00+16w452720 0.0 10062270
20:00+9wnw12340 0.0 100817